Location: Proctor
(47.8934°N, 114.3048°W)
Time: 14:20:38
(UTC+00:00)

AO-92 - Pass Details

Date: 30 June 2022
Orbit: 470 x 481 km, 97.4° (Epoch: 07 August)

Event Time Altitude Azimuth Distance (km) Brightness Sun altitude
Exits shadow 06:02:40 22° 204° (SSW) 1,101 ? -15.6°
Maximum altitude 06:04:33 40° 262° (W) 725 ? -15.7°
Drops below altitude 10° 06:07:57 10° 333° (NNW) 1,668 ? -15.9°
Sets 06:10:07 0° 341° (NNW) 2,556 ? -16.1°
